• MPC Preparation (Info)

  • MPEC 2014-U115: 2014 US115

    The following Minor Planet Electronic Circular may be linked-to from your own Web pages, but must not otherwise be redistributed electronically.

    A form allowing access to any MPEC is at the bottom of this page.


    Read MPEC 2014-U114 Read MPEC 2014-U116


    M.P.E.C. 2014-U115                               Issued 2014 Oct. 28, 22:41 UT
    
         The Minor Planet Electronic Circulars contain information on unusual
             minor planets and routine data on comets.  They are published
       on behalf of Commission 20 of the International Astronomical Union by the
              Minor Planet Center, Smithsonian Astrophysical Observatory,
                              Cambridge, MA 02138, U.S.A.
    
                 Prepared using the Tamkin Foundation Computer Network
    
                                  MPC@CFA.HARVARD.EDU
                URL https://www.minorplanetcenter.net/    ISSN 1523-6714
    
                                      2014 US115
    
    Observations:
         K14UB5S* C2014 10 27.36831 01 18 44.041-13 42 49.98         20.3 wLEU115F51
         K14UB5S  C2014 10 27.39486 01 18 23.574-13 40 49.04         19.8 wLEU115F51
         K14UB5S KC2014 10 27.92760 01 11 53.89 -12 59 11.2                qEU115J95
         K14UB5S KC2014 10 27.93852 01 11 45.18 -12 58 17.5          19.5 RqEU115J95
         K14UB5S KC2014 10 28.03184 01 10 28.68 -12 50 10.6          19.5  qEU115104
         K14UB5S KC2014 10 28.03460 01 10 26.48 -12 49 57.2          18.9  qEU115104
         K14UB5S KC2014 10 28.03811 01 10 23.67 -12 49 39.9          18.6  qEU115104
         K14UB5S KC2014 10 28.05991 01 10 06.25 -12 47 46.8          20.4  qEU115104
         K14UB5S  C2014 10 28.84751 00 59 43.15 -11 36 26.7                qEU115246
         K14UB5S  C2014 10 28.84786 00 59 42.90 -11 36 24.7          18.7 RqEU115246
         K14UB5S  C2014 10 28.84815 00 59 42.66 -11 36 22.0                qEU115246
         K14UB5S  C2014 10 28.84906 00 59 41.79 -11 36 18.0                qEU115246
         K14UB5S  C2014 10 28.84944 00 59 41.45 -11 36 15.0                qEU115246
         K14UB5S  C2014 10 28.85016 00 59 40.84 -11 36 11.3                qEU115246
         K14UB5S  C2014 10 28.85044 00 59 40.67 -11 36 09.4                qEU115246
         K14UB5S  C2014 10 28.85074 00 59 40.35 -11 36 06.6                qEU115246
         K14UB5S  C2014 10 28.85112 00 59 39.98 -11 36 05.3                qEU115246
    
    Observer details:
    104 San Marcello Pistoiese.  Observer P. Bacci.  Measurers P. Bacci, L. Tesi,
        G. Fagioli.  0.60-m f/4 reflector + CCD.
    246 Klet Observatory-KLENOT.  Observers J. Ticha, M. Tichy, M. Kocer.
        Measurer M. Tichy.  1.06-m KLENOT Telescope + CCD.
    F51 Pan-STARRS 1, Haleakala.  Observers B. Gibson, T. Goggia, N. Primak,
        A. Schultz, M. Willman.  Measurers B. Bolin, K. Chambers, S. Chastel,
        L. Denneau, H. Flewelling, M. Huber, E. Magnier, E. Schunova, R. Wainscoat,
        C. Waters.  1.8-m Ritchey-Chretien + CCD.
    J95 Great Shefford.  Observer P. Birtwhistle.  0.40-m f/6.0 Schmidt-Cassegrain
        + CCD.
    
    Orbital elements:
    2014 US115                                               Earth MOID = 0.0094 AU
    Epoch 2014 Dec. 9.0 TT = JDT 2457000.5                  MPC
    M 326.18164              (2000.0)            P               Q
    n   0.89342408     Peri.   93.85138     -0.64992698     -0.74849514
    a   1.0676550      Node    37.77152     +0.58357085     -0.60252930
    e   0.2367560      Incl.   12.41827     +0.48686753     -0.27697196
    P   1.10           H   24.6           G   0.15           U   8
    Residuals in seconds of arc
    141027 F51  0.0   0.2-    141028 104  0.2-  0.7-    141028 246  0.5-  0.1+
    141027 F51  0.1-  0.1-    141028 104  0.3-  1.2-    141028 246  0.1-  0.4-
    141027 J95  0.4+  0.8+    141028 246  0.5-  0.5-    141028 246  1.0+  0.1-
    141027 J95  0.2+  0.1+    141028 246  0.4+  0.5-    141028 246  0.2+  1.0+
    141028 104  0.3-  1.1+    141028 246  0.6+  0.5+    141028 246  0.4-  0.1+
    141028 104  0.2-  0.2+    141028 246  0.4-  0.7-
    
    Ephemeris:
    2014 US115               a,e,i = 1.07, 0.24, 12                  q = 0.8149
    Date    TT    R. A. (2000) Decl.     Delta      r     Elong.  Phase     V
    2014 09 28    03 03 27.8 -19 52 44   0.2099  1.1573   133.8    38.7    23.1
    ...
    2014 10 13    02 45 10.3 -20 18 34   0.1276  1.1035   143.8    32.3    21.7
    ...
    2014 10 21    02 12 55.7 -18 36 04   0.08807 1.0727   149.9    27.8    20.7
    ...
    2014 10 27    01 22 59.7 -14 08 39   0.06215 1.0490   151.4    27.0    19.9
    2014 10 28    01 10 58.4 -12 50 57   0.05838 1.0450   150.6    27.9    19.8
    2014 10 29    00 57 32.9 -11 19 17   0.05484 1.0410   149.2    29.2    19.7
    ...
    2014 11 04    23 02 24.7 +03 51 51   0.04098 1.0167   126.4    51.7    19.6
    ...
    2014 11 12    19 58 15.3 +24 10 03   0.05128 0.9843    82.2    94.8    21.5
    ...
    2014 11 27    17 36 15.3 +28 24 42   0.1110  0.9254    53.7   120.8    24.6
    
    A. U. Tomatic                (C) Copyright 2014 MPC           M.P.E.C. 2014-U115
    

    Read MPEC 2014-U114 Read MPEC 2014-U116


    MPEC number:

    Enter an MPEC number in one of the following forms:

    • 1997-B01 (the full form)
    • J97B01 (the packed version of the full form)
    • B01 (the abbreviated form)